{"data":{"norad_id":60263,"intl_designator":"2024-131J","name":"STARLINK-32148","alt_names":[],"object_type":"PAYLOAD","status":"ACTIVE","operator":null,"country":"US","launch_date":"2024-07-27","launch_site_code":"AFETR","launch_vehicle":null,"mission":null,"orbit_class":"UNKNOWN","rcs_meters":null,"size_class":null,"mass_kg":null,"dimensions":null,"purposes":["comms"],"wikipedia_slug":null,"has_3d_model":false,"image_url":null,"decayed_at":null,"tle_current":{"epoch":"2026-09-21T06:51:13.608288Z","epoch_age_seconds":113355,"freshness":"FRESH","line1":"1 60263U 24131J   26264.28557417 -.00001004  00000+0 -20569-4 0  9999","line2":"2 60263  53.1586 222.5998 0001629  87.6808 272.4380 15.31697465121736","mean_motion":15.31697465,"eccentricity":0.0001629,"inclination_deg":53.1586,"raan_deg":222.5998,"arg_perigee_deg":87.6808,"mean_anomaly_deg":272.438,"bstar":-2.0569e-5,"rev_number":12173,"period_min":94.013343555413,"perigee_km":469.63186864565,"apogee_km":471.86323523267,"semimajor_km":6848.8845519392,"source":"CELESTRAK","updated_at":"2026-09-22T09:00:49.187719Z"}}}